Regional Weather Roundup
Issued by NWS Charleston, SC

Current Version | Previous Version | Graphics & Text | Print | Product List | Glossary On
Versions: 1 2 3 4 5 6 7 8 9 10 11 12 13 14 15 16 17 18 19 20 21 22 23 24 25 26 27 28 29 30 31 32 33 34 35 36 37 38 39 40 41 42 43 44 45 46 47 48 49 50
127 ASUS42 KCHS 170827 RWRCHS REGIONAL WEATHER ROUNDUP NATIONAL WEATHER SERVICE CHARLESTON SC 400 AM EDT THU AUG 17 2017 NOTE: "FAIR" INDICATES FEW OR NO CLOUDS BELOW 12,000 FEET WITH NO SIGNIFICANT WEATHER AND/OR OBSTRUCTIONS TO VISIBILITY. NOT ALL STATIONS ARE QUALITY CONTROLLED. USE DATA WITH CAUTION... ESPECIALLY DEWPOINT OBSERVATIONS. SCZ027-030-031-034>040-042>050-170900- ...SOUTHEAST SOUTH CAROLINA... CITY SKY/WX TMP DP RH WIND PRES REMARKS N CHARLESTON PTCLDY 82 79 90 SW7 29.99F HX 92 WATERFRONT PRK N/A N/A N/A N/A VRB3 29.84F JOHNS ISLAND FAIR 82 81 94 CALM 30.00S HX 95 PINOPOLIS N/A 82 81 94 SW6 29.93F HX 95 MONCKS CORNER FAIR 79 77 94 CALM 29.99S SUMMERVILLE FAIR 79 77 94 CALM 30.01S BEAUFORT MCAS CLEAR 81 80 97 CALM 30.01R HX 91 BEAUFORT ARPT FAIR 81 79 94 CALM 30.00S HILTON HEAD IS CLEAR 82 81 94 CALM 30.01S HX 95 WALTERBORO SUNNY 79 77 94 CALM 30.01S ALLENDALE NOT AVBL ...SOUTHERN MIDLANDS AND PEE DEE... CITY SKY/WX TMP DP RH WIND PRES REMARKS GEORGETOWN FAIR 77 77 100 CALM 30.01S KINGSTREE FOG 75 73 94 CALM 29.99F VSB 1 ORANGEBURG CLEAR 77 75 93 CALM 30.00F BARNWELL FAIR 79 77 94 CALM 30.00F AIKEN FAIR 73 73 100 CALM 30.04F MANNING FAIR 77 73 88 N8G23 30.00S COLUMBIA CLEAR 79 73 82 W3 29.99F SUMTER CLEAR 77 75 92 CALM 29.97F FLORENCE CLEAR 76 76 100 E3 30.00F MYRTLE BEACH NOT AVBL N MYRTLE BEACH PTCLDY 78 78 100 CALM 30.00S FOG $$ GAZ063-065-086>088-099>101-113>116-118-119-134>141-150-170900- ...SOUTHEAST GEORGIA... CITY SKY/WX TMP DP RH WIND PRES REMARKS SAVANNAH ARPT CLEAR 81 77 88 SW3 30.01S HUNTER AAF CLEAR 80 77 91 CALM 29.99S FORT STEWART CLEAR 78 76 91 CALM 29.99S STATESBORO CLEAR 78 75 90 CALM 30.01F SYLVANIA SUNNY 77 77 100 CALM 30.02F CLAXTON FAIR 77 76 97 CALM 30.01F ...CSRA...CENTRAL AND FAR SOUTHEAST GEORGIA... CITY SKY/WX TMP DP RH WIND PRES REMARKS THOMSON CLEAR 75 74 96 CALM 30.06S AUGUSTA-BUSH CLEAR 80 76 87 CALM 29.99F AUGUSTA-DANIEL CLEAR 83 72 69 NW5 30.01F SWAINSBORO FAIR 77 77 100 CALM 30.02F VIDALIA CLEAR 79 77 94 CALM 30.02F EASTMAN FAIR 77 77 100 CALM 30.05S HAZLEHURST FAIR 79 71 74 CALM 30.02S ALMA CLEAR 77 74 90 CALM 30.02F WAYCROSS CLEAR 78 74 90 CALM 30.02F JESUP FAIR 79 73 83 CALM 30.02S BAXLEY FAIR 73 73 100 CALM 30.02S BRUNSWICK CLEAR 79 73 83 W5 30.03S SAINT SIMONS CLEAR 82 78 88 W6 30.01F HX 91 $$ SCZ027-028-034-036>038-045-046-048>050-GAZ119-141-170900- ...LAKE AND SUPPLEMENTAL COASTAL OBSERVATIONS... STATION/POSITION TIME TEMP WIND PRES WAVE SWELL AIR SEA DIR/SP/G HT/PER HT/PER/DIR (UTC) (F) (DEG/KT/KT) (MB) (FT/S) (FT/S/D) WINYAH BAY 0745 79 310/ 1 1016.0S LAKE MURRAY 0730 82 290/ 1/ 2 1014.9F ACE BASIN NERRS 0745 81 CALM 1016.0S FORT PULASKI 0800 83 86 260/ 3/ 4 1016.5 SAPELO ISLAND 0800 83 CALM 1016.0 $$ ANZ835-935-AMZ111-154-330-350-352-354-370-450-454-472-170900- ...C-MAN AND BUOY OBSERVATIONS... STATION/POSITION TIME TEMP WIND PRES WAVE SWELL AIR SEA DIR/SP/G HT/PER HT/PER/DIR (UTC) (F) (DEG/KT/KT) (MB) (FT/S) (FT/S/D) BUOY 41004 0810 84 84 230/ 10/ 12 1015.3 BUOY 41008 0750 85 84 220/ 8/ 10 1015.7F 2/ 4 2/170/ 4 FOLLY BEACH CMAN 0800 84 240/ 6/ 8 1016.3F CAPERS NEARSHORE 0808 83 85 250/ 12/ 17 1015.3F FRIPP NEARSHORE 0808 85 250/ 10/ 14 1015.5S STATION/POSITION TIME TEMP WIND PRES WAVE SWELL AIR SEA DIR/SP/G HT/PER HT/PER/DIR (UTC) (F) (DEG/KT/KT) (MB) (FT/S) (FT/S/D) 5E ST. MARYS GA 0800 83 N/A 2/ 7 FRYING PAN BUOY 0810 83 84 170/ 6/ 8 1015.6 BUOY 41025 0750 79 83 360/ 8/ 10 1016.2F 2/ 8 2/100/ 8 CAPE LOOKOUT NC 0800 80 10/ 2/ 2 1016.2S BUOY 41002 0750 82 84 300/ 14/ 17 1015.6F 3/ 6 2/150/ 8 BUOY 41010 0810 85 86 220/ 8/ 10 1017.0 ST AUGUSTINE FL 0800 79 80 240/ 4/ 6 1017.2F $$

USA.gov is the U.S. government's official web portal to all federal, state and local government web resources and services.